FW0435 Weather Reports


Display with metric or nautical units.
time (UTC)temp
F
wind
direction
speed
MPH
gust
MPH
rain 1hr
in
rain 24hr
in
rain mn
in
humidity
%
barometer
mb
20260509200003 71 108 0.0 3.0 0.00 0.00 0.00 59 1009.5
20260509194501 71 145 0.0 8.0 0.00 0.00 0.00 60 1009.6
20260509193117 72 84 0.0 3.0 0.00 0.00 0.00 59 1009.6
20260509191559 72 305 2.0 7.0 0.00 0.00 0.00 59 1009.6
20260509190059 72 163 1.0 4.0 0.00 0.00 0.00 60 1010.1
20260509184607 71 176 2.0 6.0 0.00 0.00 0.00 56 1010.2
20260509183052 70 349 2.0 6.0 0.00 0.00 0.00 55 1010.3
20260509181549 69 255 0.0 3.0 0.00 0.00 0.00 58 1010.9
20260509180048 69 156 0.0 5.0 0.00 0.00 0.00 57 1011.0
20260509174545 68 193 1.0 4.0 0.00 0.00 0.00 59 1011.2
20260509173049 67 32 0.0 3.0 0.00 0.00 0.00 58 1011.6
20260509171553 67 136 1.0 3.0 0.00 0.00 0.00 62 1011.8
20260509170043 67 146 0.0 8.0 0.00 0.00 0.00 62 1012.1
20260509164542 68 219 2.0 5.0 0.00 0.00 0.00 60 1012.0
20260509163041 69 120 2.0 5.0 0.00 0.00 0.00 58 1011.8
20260509161539 68 322 0.0 6.0 0.00 0.00 0.00 58 1011.6
20260509160037 67 27 0.0 3.0 0.00 0.00 0.00 60 1011.8
20260509154537 67 103 0.0 3.0 0.00 0.00 0.00 62 1012.0
20260509153037 67 47 0.0 3.0 0.00 0.00 0.00 58 1012.0
20260509151530 66 149 0.0 4.0 0.00 0.00 0.00 61 1012.0
20260509150028 65 321 1.0 3.0 0.00 0.00 0.00 66 1012.3
20260509144528 64 139 0.0 1.0 0.00 0.00 0.00 64 1012.3
20260509143026 63 256 0.0 3.0 0.00 0.00 0.00 64 1012.5
20260509141524 62 276 0.0 2.0 0.00 0.00 0.00 65 1012.6
20260509140018 60 265 0.0 1.0 0.00 0.00 0.00 67 1012.6
20260509134514 59 199 0.0 1.0 0.00 0.00 0.00 69 1012.3
20260509133014 59 163 0.0 2.0 0.00 0.00 0.00 70 1012.3
20260509131519 59 165 0.0 2.0 0.00 0.00 0.00 70 1012.4
20260509130011 59 174 0.0 2.0 0.00 0.00 0.00 71 1012.4
20260509124511 57 107 0.0 3.0 0.00 0.00 0.00 74 1012.6
20260509123004 57 112 0.0 2.0 0.00 0.00 0.00 75 1012.5
20260509121508 56 170 2.0 3.0 0.00 0.00 0.00 75 1012.4
20260509120003 56 341 0.0 0.0 0.00 0.00 0.00 78 1012.6
20260509114502 56 341 0.0 1.0 0.00 0.00 0.00 75 1012.4
20260509113059 55 341 0.0 1.0 0.00 0.00 0.00 77 1012.3
20260509111557 55 341 0.0 1.0 0.00 0.00 0.00 75 1012.1
20260509110056 55 341 0.0 1.0 0.00 0.00 0.00 73 1011.9
20260509104555 55 186 0.0 2.0 0.00 0.00 0.00 70 1011.9
20260509103054 55 268 0.0 3.0 0.00 0.00 0.00 69 1011.8
20260509101555 55 220 0.0 5.0 0.00 0.00 0.00 68 1011.7
20260509100058 55 255 1.0 5.0 0.00 0.00 0.00 69 1011.8
20260509094553 55 252 0.0 3.0 0.00 0.00 0.00 68 1011.7
20260509093050 55 159 0.0 2.0 0.00 0.00 0.00 70 1011.7
20260509091548 54 288 0.0 1.0 0.00 0.00 0.00 72 1011.8
20260509090048 54 216 0.0 3.0 0.00 0.00 0.00 73 1011.8
20260509084552 53 155 0.0 0.0 0.00 0.00 0.00 76 1011.9
20260509083044 54 155 0.0 0.0 0.00 0.00 0.00 77 1012.0
20260509081547 54 260 0.0 4.0 0.00 0.00 0.00 73 1012.0
20260509080043 54 195 0.0 0.0 0.00 0.00 0.00 74 1012.1
20260509074545 54 195 0.0 0.0 0.00 0.00 0.00 74 1012.1
20260509073041 54 199 0.0 0.0 0.00 0.00 0.00 73 1012.1
20260509071544 54 257 0.0 0.0 0.00 0.00 0.00 72 1012.2
20260509070040 54 214 0.0 0.0 0.00 0.00 0.00 72 1012.3
20260509064536 54 216 0.0 0.0 0.00 0.00 0.00 73 1012.3
20260509063034 53 195 0.0 1.0 0.00 0.00 0.00 74 1012.5
20260509061540 53 243 0.0 0.0 0.00 0.00 0.00 75 1012.5
20260509060029 52 246 0.0 0.0 0.00 0.00 0.00 76 1012.6
20260509054524 50 231 0.0 1.0 0.00 0.00 0.00 82 1012.8
20260509053022 48 240 0.0 0.0 0.00 0.00 0.00 88 1012.8
20260509051528 47 240 0.0 1.0 0.00 0.00 0.00 88 1012.9
20260509050019 47 268 0.0 0.0 0.00 0.00 0.00 88 1012.9
20260509044513 47 269 0.0 0.0 0.00 0.00 0.00 88 1012.9
20260509043009 47 269 0.0 0.0 0.00 0.00 0.00 87 1012.9
20260509041504 46 269 0.0 0.0 0.00 0.00 0.00 88 1013.0
20260509034605 46 269 0.0 0.0 0.00 0.00 0.00 87 1013.0
20260509033059 47 269 0.0 0.0 0.00 0.00 0.00 87 1013.0
20260509031603 47 269 0.0 0.0 0.00 0.00 0.00 86 1013.2
20260509030058 48 269 0.0 1.0 0.00 0.00 0.00 87 1013.2
20260509024558 49 269 0.0 0.0 0.00 0.00 0.00 85 1013.3
20260509023102 49 269 0.0 0.0 0.00 0.00 0.00 82 1013.4
20260509021557 51 269 0.0 0.0 0.00 0.00 0.00 84 1013.2
20260509020058 51 269 0.0 0.0 0.00 0.00 0.00 85 1013.2
20260509014556 52 269 0.0 0.0 0.00 0.00 0.00 83 1013.2
20260509013114 54 269 0.0 0.0 0.00 0.00 0.00 80 1013.1
20260509011554 54 269 0.0 1.0 0.00 0.00 0.00 79 1013.2
20260509010055 57 269 0.0 3.0 0.00 0.00 0.00 75 1013.1
20260509004554 58 86 0.0 1.0 0.00 0.00 0.00 68 1013.1
20260509003051 61 87 0.0 0.0 0.00 0.00 0.00 59 1013.0
20260509001550 62 87 0.0 0.0 0.00 0.00 0.00 57 1012.9
20260509000050 63 87 0.0 0.0 0.00 0.00 0.00 55 1012.8
20260508234549 64 87 0.0 1.0 0.00 0.00 0.00 58 1012.7
20260508233049 65 87 0.0 0.0 0.00 0.00 0.00 50 1012.6
20260508231648 66 87 0.0 0.0 0.00 0.00 0.00 49 1012.6
20260508230056 67 87 0.0 0.0 0.00 0.00 0.00 47 1012.4
20260508224601 68 87 0.0 0.0 0.00 0.00 0.00 46 1012.3
20260508223047 68 86 0.0 1.0 0.00 0.00 0.00 46 1012.1
20260508221556 68 86 0.0 4.0 0.00 0.00 0.00 43 1012.0
20260508220046 68 41 0.0 2.0 0.00 0.00 0.00 40 1012.2
20260508214545 68 269 0.0 1.0 0.00 0.00 0.00 41 1012.4
20260508213056 69 302 0.0 2.0 0.00 0.00 0.00 41 1012.4
20260508211543 69 329 0.0 3.0 0.00 0.00 0.00 40 1012.3
20260508210043 69 173 0.0 6.0 0.00 0.00 0.00 39 1012.4
20260508204542 71 262 2.0 6.0 0.00 0.00 0.00 41 1012.4
20260508203039 69 268 0.0 4.0 0.00 0.00 0.00 42 1012.5
20260508201540 68 255 2.0 5.0 0.00 0.00 0.00 40 1012.7